Regional Weather Roundup
Issued by NWS Wakefield, VA

Home | Current Version | Previous Version | Text Only | Print | Product List | Glossary Off
Versions: 1 2 3 4 5 6 7 8 9 10 11 12 13 14 15 16 17 18 19 20 21 22 23 24 25 26

000
ASUS41 KAKQ 240415
RWRAKQ

REGIONAL WEATHER ROUNDUP
NATIONAL WEATHER SERVICE WAKEFIELD VA
1100 PM EST THU FEB 23 2017

Note: "fair" indicates few or no clouds below 12,000 feet with no
significant weather and/or obstructions to visibility. * = Denotes
station may not report precipitation (e.g., rain,snow,etc.),
thunder or fog.

VAZ042-051-052>054-056-240500-
NORTHERN VIRGINIA

CITY           SKY/WX    TMP DP  RH WIND       PRES   REMARKS
WASH NATIONAL  MOCLDY    60  52  74 S9        29.89R
DULLES         PTCLDY    62  50  64 S8        29.88R
FORT BELVOIR   CLEAR     56  49  77 CALM      29.90R
QUANTICO       CLEAR     58  51  78 SW7       29.91R
FREDERICKSBRG* CLEAR     62  53  72 S7        29.89S
STAFFORD*      CLEAR     60  51  73 CALM      29.94S
WARRENTON      CLEAR     63  48  59 S3        29.89R
CULPEPER*      MOCLDY    54  51  89 CALM      29.91R
MANASSAS*        N/A     58  50  75 S3        29.90R
LEESBURG*      PTCLDY    63  54  72 MISG      29.89S
WINCHESTER     PTCLDY    59  50  72 SW6       29.87S
FRONT ROYAL*   NOT AVBL
LURAY*         NOT AVBL
$$

VAZ048-049-060>072-079>083-240500-
CENTRAL AND SOUTH CENTRAL VIRGINIA

CITY           SKY/WX    TMP DP  RH WIND       PRES   REMARKS
RICHMOND       CLEAR     57  52  83 S5        29.92S
CHESTERFIELD*  FAIR      57  39  51 S6        29.94R
PETERSBURG*    CLEAR     56  52  86 CALM      29.93S
HANOVER        CLEAR     61  51  70 S6        29.93S
TAPPAHANNOCK*  CLEAR     60  46  58 S3        29.93S
QUINTON*       NOT AVBL
CHARLOTTSVILLE PTCLDY    59  51  75 S8        29.90R
GORDONSVILLE*  NOT AVBL
ORANGE*        CLOUDY    50  46  87 CALM      29.92R
LOUISA*        CLEAR     63  55  77 S3        29.90S
BUMPASS*       NOT AVBL
FARMVILLE*     CLEAR     58  53  84 CALM      29.91R
CREWE*         NOT AVBL
FORT PICKETT*  NOT AVBL
CHASE CITY*    NOT AVBL
CLARKSVILLE*   NOT AVBL
SOUTH HILL*    CLEAR     51  50  95 CALM      29.99S
LAWRENCEVILLE* NOT AVBL
EMPORIA*         N/A     52  50  93 NE3       29.95S
$$

VAZ088>098-240500-
SOUTHEAST VIRGINIA

CITY           SKY/WX    TMP DP  RH WIND       PRES   REMARKS
NORFOLK        CLEAR     55  51  86 S3        29.95R
VIRGINIA BEACH CLEAR     53  48  83 CALM      29.95R
NORFOLK NAVAL  CLEAR     60  52  74 S5        29.96S
WEST POINT*    CLEAR     59  53  78 SE5       29.94S
SALUDA*        NOT AVBL
NEWPORT NEWS   CLEAR     56  51  84 S3        29.94S
LANGLEY AFB    CLEAR     57  55  95 S5        29.94S
FORT EUSTIS    CLEAR     56  52  86 SE6       29.92S
WILLIAMSBURG*  CLEAR     57  55  94 CALM      29.95R
HR EXEC AP*    NOT AVBL
FRANKLIN*      CLEAR     54  51  89 CALM      29.95S
US460-WAKEFLD  CLEAR     55  52  89 CALM      29.94S
$$

VAZ020-022-025-037-045-240500-
WEST CENTRAL AND SOUTHWEST VIRGINIA

CITY           SKY/WX    TMP DP  RH WIND       PRES   REMARKS
STAUNTON*      CLEAR     51  48  89 CALM      29.93R
WAYNESBORO*    NOT AVBL
HOT SPRINGS VA CLEAR     54  46  76 S10       29.96S
LYNCHBURG      NOT AVBL
DANVILLE       CLEAR     57  51  80 CALM      29.92S
SOUTH BOSTON*  NOT AVBL
MARTINSVILLE   PTCLDY    50  49  96 CALM      29.94S
ROANOKE        CLEAR     58  51  78 SE6       29.93S
BLACKSBURG     CLEAR     50  48  93 CALM      29.96S
DUBLIN*        CLEAR     56  51  84 CALM      29.94S
MARION*        CLEAR     55  51  87 NE5       29.96R
HILLSVILLE*    CLEAR     56  52  86 S6        29.94S
RICHLANDS*     FAIR      59  49  70 CALM      29.91S
WISE*          PTCLDY    61  46  59 S3G16     29.90S
ABINGDON*      CLEAR     57  50  78 E6        29.90S
$$

MDZ021>025-VAZ099-100-240500-
SOUTHERN MARYLAND AND THE DELMARVA PENINSULA

CITY           SKY/WX    TMP DP  RH WIND       PRES   REMARKS
PATUXENT RIVER PTCLDY    60  54  80 S7        29.92S
BAY BRIDGE APT CLEAR     55  52  88 S9        29.90S
LEONARDTOWN    CLEAR     59  52  77 S3        29.93S
DOVER          CLEAR     57  57 100 S9        29.90S
GEORGETOWN     CLEAR     57  52  83 S8        29.93S
EASTON         CLEAR     60  52  75 S8        29.95S
CAMBRIDGE      CLEAR     57  52  82 S9        29.93S
SALISBURY      CLEAR     57  53  86 S9        29.94R
OCEAN CITY     CLEAR     54  50  86 SW6       29.96R
WALLOPS ISLAND CLEAR     53  52  96 S10       29.96S
ACCOMACK*      CLEAR     56  53  88 S6        29.95S
$$

NCZ012>017-030>032-240500-
NORTH CENTRAL AND EASTERN NORTH CAROLINA

CITY           SKY/WX    TMP DP  RH WIND       PRES   REMARKS
ROANOKE RAPIDS FAIR      52  52 100 CALM      29.94S
RALEIGH        PTCLDY    61  50  67 S3        29.93S
ELIZABETH CITY PTCLDY    53  52  96 CALM      29.96R
AHOSKIE*         N/A     51  50  95 CALM      29.96R
EDENTON*       PTCLDY    55  53  91 CALM      29.96R
CURRITUCK*     PTCLDY    54  54 100 CALM      29.96R
KILL DEVIL HLS NOT AVBL
MANTEO         PTCLDY    55  54  96 E3        29.95F
CAPE HATTERAS  CLOUDY    68  59  73 SE8       29.94S HAZE
TARBORO*       NOT AVBL
GOLDSBORO      CLEAR     56  56 100 CALM      29.92R
WASHINGTON       N/A     54  53  95 CALM      29.95S
GREENVILLE     CLEAR     55  55 100 CALM      29.96S
NEW BERN       CLOUDY    53  53 100 CALM      29.94S
WILMINGTON     PTCLDY    58  57  97 NE3       29.91S
$$

VAZ048-240500-
ELSEWHERE

CITY           SKY/WX    TMP DP  RH WIND       PRES   REMARKS
HARRISBURG PA  CLOUDY    59  52  77 SE6       29.85S
BALTIMORE      PTCLDY    57  50  77 CALM      29.89R
ANNAPOLIS      CLEAR     54  49  83 S7        29.90R
ANDREWS AFB    PTCLDY    61  51  68 S10       29.89R
PHILADELPHIA   PTCLDY    58  49  72 CALM      29.90S
HENDERSON NC   CLEAR     57  49  73 S3        29.93S
GREENSBORO     CLEAR     56  51  84 S7        29.92R
ROCKY MOUNT    CLEAR     54  54 100 CALM      29.94R
$$

VAZ100-240500-
MARINE

STATION/POSITION TIME  TEMP    WIND        PRES    WAVE   SWELL
                       AIR SEA DIR/SP/G            HT/PER HT/PER
                 (UTC) (F)     (DEG/KT/KT) (MB)    (FT/S) (FT/S)
CAPE MAY NJ      0348   52 44  160/  6/  8 1013.3R
LEWES DE         0348   60 45  200/  6/  9 1013.3S
OCEAN-CITY-INLET 0348   50 44  210/ 11/ 13 1014.7R
WACHAPREAGUE VA  0348   54 56  250/  3/  3 1014.5R
THOMAS POINT MD  0400   50 44  180/ 11/ 11   N/A
GOOSES REEF MD   0400   48 44  160/ 12/ 14 1013.5    1/ 2
COVE POINT MD    0348   55     190/ 12/ 13 1013.5F
SOLOMONS ISLAND  0348   57 45  190/  9/ 11   N/A
BISHOPS HEAD MD  0348   50 50  160/ 10/ 11 1013.7S
PINEY POINT MD   0348          160/  7/  7   N/A
POTOMAC MD       0400   51 47  180/  8/  8 1012.5    1
CAMBRIDGE MD     0348   57 43  170/  5/ 10 1012.5S
LEWISETTA VA     0348   60 45  210/ 10/ 12 1012.8F
RAPPAHANNOCK LGT 0348          140/ 12/ 12 1014.5S
YORK RVR RNG VA  0348   55     180/ 11/ 11 1013.2R
YORKTOWN VA      0348   60 48  180/  7/  8 1013.4R
JAMESTOWN VA     0400   60 52  120/  4/  6   N/A     0
DOMINION TERM VA 0348   57     150/  5/  5   N/A
KIPTOPEKE VA     0348      49  160/  7/  7   N/A
CHES BAY BRIDGE  0348   59 49  180/  9/ 10 1014.1R
CAPE HENRY VA    0348   59     170/  7/  8   N/A
WILLOUBY STN VA  0348   60     170/  9/ 10 1014.8R
S CRANEY ISL VA  0348   57      CALM  /  2 1013.9R
CAPE HENRY BUOY  0342      50                N/A     2/11   2/11
OFFSHORE WE BUOY 0351      49                N/A     3/10   2/12
64NM E OF VA BCH 0350   58 54  150/  6/  6 1014.6R   4/11   3/11
DUCK PIER NC     0348   56 50  140/  7/  7 1013.7S
44100 DUCK FRF   0335      49                N/A     3/11   2/11
44056 DUCK FRF   0330      50                N/A     3/11   2/11
OREGON INLET NC  0348           80/  4/  4   N/A
HATTERAS NC      0348   66 62  110/  5/  8 1013.6S
DIAMOND SHLS NC  0350   71 74  140/ 16/ 19 1013.8R   5/ 7   3/10
CAPE LOOKOUT NC  0400   66     130/ 11/ 11 1013.0S
$$




USA.gov is the U.S. government's official web portal to all federal, state and local government web resources and services.